Home > Time Zones > World Clock > Weather > Russia > Ufa > Past weeks

Flag for Russia Weather past 2 weeks in Ufa, Russia

Now
59 °F

Passing clouds.


Feels Like: 58 °F
Forecast: 59 / 70 °F
Wind: 8 mph from Southwest

Location: Ufa

Current Time: Aug 24, 2014 at 2:38:15 AM

Latest Report: Aug 24, 2014 at 2:00 AM


Visibility: N/A

Pressure: 29.83 "Hg

Humidity: 94%

Dew point: 57 °F

Location of UfaLocation

Historic Weather in Ufa — Graph

°F

Ufa temperature yesterday

Maximum temperature yesterday: 77 °F (at 1:30 PM)
Minimum temperature yesterday: 63 °F (at 7:30 AM)
Average temperature yesterday: 69 °F

Past Weeks' High & Low Weather Summary

 TemperatureHumidityPressure
High93 °F (Aug 17, 3:00 PM)100% (Aug 9, 4:30 AM)30.04 "Hg (Aug 9, 4:30 AM)
Low46 °F (Aug 14, 7:00 AM)21% (Aug 17, 3:30 PM)29.56 "Hg (Aug 11, 6:00 AM)
Average70 °F74%29.82 "Hg
* Reported Aug 9 1:00 AM — Aug 24 1:30 AM, Ufa, Weather by CustomWeather, © 2014

Note: Actual official high and low records may vary slightly from our data, if they occured in-between our weather recording intervals... More about our weather records

Advertising

Ufa weather history for previous 24 hours

 ConditionsComfort  
Time TempWeatherWind HumidityBarometerVisibility
1:30 AM
Aug 24
59 °FPassing clouds.6 mph88%29.83 "HgN/A
1:00 AM61 °FPassing clouds.6 mph88%29.83 "HgN/A
12:30 AM61 °FPassing clouds.6 mph88%29.83 "HgN/A
12:00 AM63 °FPassing clouds.3 mph88%29.83 "HgN/A
11:30 PM
Aug 23
63 °FPassing clouds.3 mph83%29.83 "HgN/A
11:00 PM63 °FPassing clouds.3 mph83%29.83 "HgN/A
10:30 PM64 °FPassing clouds.1 mph83%29.80 "HgN/A
10:00 PM66 °FPassing clouds.No wind83%29.80 "HgN/A
9:30 PM68 °FBroken clouds.No wind78%29.80 "HgN/A
9:00 PM70 °FBroken clouds.3 mph73%29.80 "HgN/A
8:30 PM73 °FBroken clouds.8 mph65%29.80 "HgN/A
8:00 PM73 °FBroken clouds.6 mph65%29.80 "HgN/A
7:30 PM75 °FBroken clouds.10 mph61%29.77 "HgN/A
7:00 PM75 °FBroken clouds.10 mph57%29.80 "HgN/A
6:30 PM75 °FMostly cloudy.15 mph61%29.77 "HgN/A
6:00 PM75 °FMostly cloudy.13 mph69%29.77 "HgN/A
5:30 PM73 °FMostly cloudy.3 mph78%29.77 "HgN/A
5:00 PM70 °FSprinkles. Fog.1 mph94%29.77 "Hg2 mi
4:30 PM72 °FThundershowers. Mostly cloudy.3 mph83%29.77 "HgN/A
4:00 PM70 °FThundershowers. Mostly cloudy.6 mph88%29.77 "HgN/A
3:30 PM68 °FThundershowers. Mostly cloudy.6 mph94%29.77 "Hg2 mi
3:00 PM73 °FSprinkles. Mostly cloudy.8 mph83%29.77 "HgN/A
2:30 PM75 °FMostly cloudy.8 mph74%29.77 "HgN/A
2:00 PM75 °FMostly cloudy.6 mph74%29.77 "HgN/A
1:30 PM77 °FMostly cloudy.1 mph65%29.77 "HgN/A
1:00 PM73 °FMostly cloudy.6 mph78%29.77 "HgN/A
12:30 PM75 °FMostly cloudy.3 mph74%29.77 "HgN/A
12:00 PM73 °FBroken clouds.3 mph78%29.77 "HgN/A
11:30 AM73 °FBroken clouds.3 mph78%29.77 "HgN/A
11:00 AM73 °FBroken clouds.3 mph78%29.77 "HgN/A
10:30 AM70 °FFog.No wind83%29.77 "Hg2 mi
10:00 AM68 °FFog.1 mph88%29.77 "Hg2 mi
9:30 AM64 °FFog.1 mph100%29.77 "Hg2 mi
9:00 AM64 °FFog.3 mph94%29.77 "Hg2 mi
8:30 AM63 °FFog.3 mph100%29.77 "Hg2 mi
8:00 AM63 °FFog.1 mph100%29.77 "Hg2 mi
7:30 AM63 °FFog.No wind94%29.77 "Hg2 mi
6:30 AM64 °FPassing clouds.3 mph94%29.77 "HgN/A
6:00 AM66 °FThundershowers. Overcast.6 mph88%29.77 "HgN/A
5:30 AM66 °FThundershowers. Overcast.8 mph88%29.77 "HgN/A
5:00 AM68 °FThundershowers. Overcast.8 mph83%29.77 "HgN/A
4:30 AM66 °FThundershowers. Overcast.6 mph94%29.77 "HgN/A
4:00 AM66 °FThundershowers. Overcast.10 mph94%29.77 "HgN/A
3:30 AM68 °FThunderstorms. Overcast.10 mph83%29.77 "HgN/A
3:00 AM68 °FThundershowers. Overcast.10 mph83%29.80 "HgN/A
2:30 AM68 °FThundershowers. Overcast.3 mph83%29.77 "HgN/A
2:00 AM68 °FThundershowers. Overcast.6 mph83%29.77 "HgN/A
Weather by CustomWeather, © 2014

See weather overviewHow to use our weather pages